Wolf Point, MT

6:17 AM MST on February 07, 2016 (GMT -0700)
Clayton

Weather History for KOLF - July, 2013

Change the Weather History Date:

Saturday, July 13, 2013

  Actual Average Record
Temperature  
Mean Temperature 71 °F -  
Max Temperature 90 °F 86 °F 100 °F (2005)
Min Temperature 52 °F 54 °F 42 °F (2008)
Degree Days  
Heating Degree Days 0    
Cooling Degree Days 6    
Growing Degree Days 23 (Base 50)    
Moisture  
Dew Point 58 °F    
Average Humidity 64    
Maximum Humidity 90    
Minimum Humidity 36    
Precipitation  
Precipitation 0.02 in 0.07 in 0.45 in (2001)
Month to date precipitation 0.49 0.92  
Year to date precipitation 9.21 7.33  
Sea Level Pressure  
Sea Level Pressure 29.94 in    
Wind  
Wind Speed 9 mph (NE)    
Max Wind Speed 32 mph    
Max Gust Speed 44 mph    
Visibility 10 miles    
Events Rain , Thunderstorm    
T = Trace of Precipitation, MM = Missing Value Source: NWS Daily Summary

Daily Weather History Graph

Daily Weather History Graph

Search for Another Location

Airport or City:

Trip Planner

Search our weather history database for the weather conditions in past years. The results will help you decide how hot, cold, wet, or windy it might be!

Date:

Astronomy

Jul. 13, 2013 Rise Set
Actual Time 5:16 AM MDT 8:59 PM MDT
Civil Twilight 4:36 AM MDT 9:38 PM MDT
Nautical Twilight 3:42 AM MDT 10:32 PM MDT
Astronomical Twilight 2:25 AM MDT 11:48 PM MDT
Moon 11:04 AM MDT (7/13) 11:09 PM MDT (7/13)
Length of Visible Light 17h 01m
Length of Day
15h 42m
Waxing Crescent, 26% of the Moon is Illuminated
Jul 13
Waxing Crescent
Jul 15
First Quarter
Jul 22
Full
Jul 29
Last Quarter
Aug 6
New

Hourly Weather History & Observations

Time (MDT) Temp. Heat Index Dew Point Humidity Pressure Visibility Wind Dir Wind Speed Gust Speed Precip Events Conditions
12:53 AM 66.9 °F - 55.9 °F 68% 29.89 in 10.0 mi Calm Calm - N/A   Clear
1:53 AM 66.9 °F - 57.9 °F 73% 29.90 in 10.0 mi ESE 4.6 mph - N/A   Mostly Cloudy
2:53 AM 66.9 °F - 61.0 °F 81% 29.89 in 10.0 mi ENE 8.1 mph - 0.00 in   Clear
3:53 AM 66.0 °F - 61.0 °F 84% 29.84 in 10.0 mi NE 11.5 mph - N/A   Clear
4:53 AM 66.9 °F - 60.1 °F 79% 29.87 in 10.0 mi ENE 4.6 mph - N/A   Partly Cloudy
5:53 AM 64.9 °F - 61.0 °F 87% 29.94 in 10.0 mi NW 9.2 mph - 0.01 in Rain , Thunderstorm Light Rain
6:19 AM 64.4 °F - 60.8 °F 88% 29.92 in 10.0 mi NE 5.8 mph - 0.01 in Rain Light Rain
6:53 AM 64.9 °F - 62.1 °F 90% 29.88 in 10.0 mi NE 5.8 mph - 0.01 in   Clear
7:16 AM 64.4 °F - 60.8 °F 88% 29.90 in 10.0 mi ESE 9.2 mph - N/A Thunderstorm Partly Cloudy
7:36 AM 66.2 °F - 62.6 °F 88% 29.93 in 10.0 mi ENE 5.8 mph - N/A   Scattered Clouds
7:53 AM 68.0 °F - 61.0 °F 78% 29.87 in 10.0 mi ESE 12.7 mph - N/A   Partly Cloudy
8:53 AM 75.0 °F - 60.1 °F 60% 29.87 in 10.0 mi ESE 9.2 mph - N/A   Partly Cloudy
9:53 AM 79.0 °F - 62.1 °F 56% 29.85 in 10.0 mi SE 6.9 mph - N/A   Clear
10:53 AM 84.0 °F 84.9 °F 63.0 °F 49% 29.84 in 10.0 mi South 8.1 mph - N/A   Clear
11:53 AM 86.0 °F 86.8 °F 63.0 °F 46% 29.83 in 10.0 mi South 15.0 mph 20.7 mph N/A   Partly Cloudy
12:53 PM 88.0 °F 87.6 °F 60.1 °F 39% 29.83 in 10.0 mi SW 10.4 mph - N/A   Partly Cloudy
1:53 PM 88.0 °F 87.9 °F 61.0 °F 40% 29.84 in 10.0 mi WSW 13.8 mph 19.6 mph N/A   Clear
2:53 PM 89.1 °F 88.2 °F 59.0 °F 36% 29.86 in 10.0 mi WNW 13.8 mph 20.7 mph N/A   Partly Cloudy
3:06 PM 87.8 °F 87.6 °F 60.8 °F 40% 29.90 in 10.0 mi WNW 15.0 mph 23.0 mph N/A   Clear
3:27 PM 84.2 °F 85.0 °F 62.6 °F 48% 29.92 in 10.0 mi NNW 26.5 mph 36.8 mph N/A   Partly Cloudy
3:53 PM 80.1 °F 80.9 °F 60.1 °F 50% 29.92 in 10.0 mi NNW 29.9 mph 39.1 mph N/A   Clear
4:53 PM 72.0 °F - 54.0 °F 53% 29.98 in 10.0 mi NNW 32.2 mph 43.7 mph N/A   Scattered Clouds
5:53 PM 72.0 °F - 51.1 °F 48% 30.01 in 10.0 mi North 23.0 mph 35.7 mph N/A   Clear
6:53 PM 71.1 °F - 51.1 °F 49% 30.06 in 10.0 mi North 16.1 mph - N/A   Clear
7:53 PM 69.1 °F - 51.1 °F 53% 30.10 in 10.0 mi NE 10.4 mph - N/A   Clear
8:53 PM 64.0 °F - 50.0 °F 60% 30.13 in 10.0 mi ENE 10.4 mph - N/A   Clear
9:53 PM 60.1 °F - 51.1 °F 72% 30.18 in 10.0 mi East 5.8 mph - N/A   Clear
10:53 PM 57.0 °F - 51.1 °F 81% 30.20 in 10.0 mi Calm Calm - N/A   Clear
11:53 PM 54.0 °F - 50.0 °F 86% 30.21 in 10.0 mi Calm Calm - N/A   Clear